This demonstration page uses our WeatherBlox Daily Observations layout. Learn more.

Left ArrowRight Arrow

36.17497, -115.13722

Hourly Observations for January 7, 2019

Temp ( °F °C ) Dew Point ( °F °C ) Humidity (%) Winds ( mph kmh ) Pressure ( in mb ) Visibility ( mi km ) Precip ( " mm )
12:53 am 00:53 Cloudy 48 8.9 37 2.8 66 66 S 13 20 30.07 1018 10 16.0934 0 0
1:53 am 01:53 Mostly Clear 49 9.4 36 2.2 61 61 S 16 26 30.07 1018 10 16.0934 0 0
2:53 am 02:53 Cloudy 49 9.4 37 2.8 64 64 SE 12 19 30.07 1018 10 16.0934 0 0
3:53 am 03:53 Cloudy 49 9.4 37 2.8 64 64 S 12 19 30.08 1019 10 16.0934 0 0
4:53 am 04:53 Cloudy 48 8.9 39 3.9 71 71 SE 8 13 30.11 1020 10 16.0934 0 0
5:53 am 05:53 Cloudy 47 8.3 39 3.9 74 74 ESE 12 19 30.14 1021 10 16.0934 0 0
6:53 am 06:53 Cloudy 47 8.3 39 3.9 74 74 ESE 10 17 30.16 1022 10 16.0934 0 0
7:53 am 07:53 Cloudy 47 8.3 39 3.9 74 74 E 13 20 30.2 1023 10 16.0934 0 0
8:53 am 08:53 Cloudy 48 8.9 39 3.9 71 71 E 14 22 30.24 1024 10 16.0934 0 0
9:53 am 09:53 Mostly Cloudy 49 9.4 40 4.4 71 71 ENE 10 17 30.27 1025 10 16.0934 0 0
10:53 am 10:53 Mostly Cloudy 50 10 41 5 71 71 ENE 9 15 30.26 1025 10 16.0934 0 0
11:53 am 11:53 Cloudy 50 10 41 5 71 71 NE 10 17 30.24 1024 10 16.0934 0 0
12:53 pm 12:53 Cloudy 50 10 41 5 71 71 ENE 8 13 30.24 1024 10 16.0934 0 0
1:36 pm 13:36 Cloudy 51 10.6 41 5 69 69 ENE 9 15 30.18 1022 10 16.0934 0 0
1:43 pm 13:43 Cloudy 51 10.6 41 5 69 69 ENE 10 17 30.18 1022 10 16.0934 0 0
1:53 pm 13:53 Cloudy 51 10.6 41 5 69 69 ENE 9 15 30.24 1024 10 16.0934 0 0
2:53 pm 14:53 Cloudy 50 10 41 5 71 71 E 13 20 30.27 1025 10 16.0934 0 0
3:53 pm 15:53 Cloudy 50 10 40 4.4 68 68 E 9 15 30.3 1026 10 16.0934 0 0
4:53 pm 16:53 Cloudy 50 10 40 4.4 68 68 E 5 7 30.32 1027 10 16.0934 0 0
5:53 pm 17:53 Cloudy 49 9.4 41 5 74 74 Calm 30.34 1028 10 16.0934 0 0
6:53 pm 18:53 Cloudy 49 9.4 41 5 74 74 Calm 30.35 1028 10 16.0934 0 0
7:06 pm 19:06 Cloudy 49 9.4 41 5 74 74 SSE 3 6 30.3 1026 10 16.0934 0 0
7:53 pm 19:53 Cloudy 49 9.4 41 5 74 74 SE 3 6 30.36 1028 10 16.0934 0 0
8:53 pm 20:53 Cloudy 49 9.4 41 5 74 74 Calm 30.37 1029 10 16.0934 0 0
9:53 pm 21:53 Cloudy 49 9.4 41 5 74 74 WNW 3 6 30.37 1029 10 16.0934 0 0
10:53 pm 22:53 Cloudy 47 8.3 41 5 80 80 Calm 30.36 1028 10 16.0934 0 0
11:53 pm 23:53 Cloudy 49 9.4 41 5 74 74 Calm 30.36 1028 10 16.0934 0 0

Powered by AerisWeather